Location: Burzi?i
(45.0869°N, 16.0577°E)
Time: 12:18:30
(UTC+00:00)

CSL-04 Debris - Pass Details

Date: 29 October 2020
Orbit: 827 x 848 km, 98.9° (Epoch: 27 November)

Event Time Altitude Azimuth Distance (km) Brightness Sun altitude
Exits shadow 17:34:56 -1° 157° (SSE) 3,450 7.2 -19.4°
Rises 17:35:07 0° 157° (SSE) 3,372 7.1 -19.5°
Reaches altitude 10° 17:37:28 10° 155° (SSE) 2,445 6.4 -19.9°
Maximum altitude 17:42:51 71° 72° (ENE) 889 4.1 -20.8°
Drops below altitude 10° 17:48:19 10° 350° (N) 2,475 6.8 -21.8°
Sets 17:50:42 0° 348° (NNW) 3,417 7.5 -22.2°
